Time,TemperatureF,DewpointF,PressureIn,WindDirection,WindDirectionDegrees,WindSpeedMPH,WindSpeedGustMPH,Humidity,HourlyPrecipIn,Conditions,Clouds,dailyrainin,SoftwareType,DateUTC
2013-07-09 00:01:00,77.6,44.0,29.64,West,262,0.0,-999.0,30,-99.99,,,0.00,weatherlink.com 1.10,2013-07-09 06:01:00,
2013-07-09 00:16:00,78.6,43.0,29.63,West,262,0.0,-999.0,28,-99.99,,,0.00,weatherlink.com 1.10,2013-07-09 06:16:00,
2013-07-09 00:31:00,78.6,44.0,29.63,West,262,0.0,-999.0,29,-99.99,,,0.00,weatherlink.com 1.10,2013-07-09 06:31:00,
2013-07-09 00:46:00,77.6,44.0,29.64,West,262,0.0,-999.0,30,-99.99,,,0.00,weatherlink.com 1.10,2013-07-09 06:46:00,
2013-07-09 01:01:00,77.0,43.0,29.64,West,262,0.0,-999.0,30,-99.99,,,0.00,weatherlink.com 1.10,2013-07-09 07:01:00,
2013-07-09 01:16:00,76.1,43.0,29.64,West,262,0.0,-999.0,31,-99.99,,,0.00,weatherlink.com 1.10,2013-07-09 07:16:00,
2013-07-09 01:31:00,76.8,42.0,29.63,West,262,0.0,-999.0,29,-99.99,,,0.00,weatherlink.com 1.10,2013-07-09 07:31:00,
2013-07-09 01:46:00,76.1,42.0,29.65,West,262,0.0,-999.0,30,-99.99,,,0.00,weatherlink.com 1.10,2013-07-09 07:46:00,
2013-07-09 02:01:00,75.3,43.0,29.64,West,262,0.0,-999.0,31,-99.99,,,0.00,weatherlink.com 1.10,2013-07-09 08:01:00,
2013-07-09 02:16:00,74.9,41.0,29.64,West,262,0.0,-999.0,30,-99.99,,,0.00,weatherlink.com 1.10,2013-07-09 08:16:00,
2013-07-09 02:31:00,74.0,43.0,29.64,West,262,0.0,-999.0,33,-99.99,,,0.00,weatherlink.com 1.10,2013-07-09 08:31:00,
2013-07-09 02:46:00,73.0,44.0,29.65,West,262,0.0,-999.0,35,-99.99,,,0.00,weatherlink.com 1.10,2013-07-09 08:46:00,
2013-07-09 03:01:00,71.6,44.0,29.65,West,262,0.0,-999.0,37,-99.99,,,0.00,weatherlink.com 1.10,2013-07-09 09:01:00,
2013-07-09 03:16:00,70.8,45.0,29.66,West,262,0.0,-999.0,39,-99.99,,,0.00,weatherlink.com 1.10,2013-07-09 09:16:00,
2013-07-09 03:31:00,69.9,44.0,29.66,West,262,0.0,-999.0,40,-99.99,,,0.00,weatherlink.com 1.10,2013-07-09 09:31:00,
2013-07-09 03:46:00,69.9,44.0,29.67,West,262,0.0,-999.0,39,-99.99,,,0.00,weatherlink.com 1.10,2013-07-09 09:46:00,
2013-07-09 04:01:00,69.6,45.0,29.68,West,262,0.0,-999.0,42,-99.99,,,0.00,weatherlink.com 1.10,2013-07-09 10:01:00,
2013-07-09 04:16:00,69.4,44.0,29.79,West,262,0.0,-999.0,40,-99.99,,,0.00,weatherlink.com 1.10,2013-07-09 10:16:00,
2013-07-09 04:31:00,69.6,43.0,29.79,West,262,0.0,-999.0,38,-99.99,,,0.00,weatherlink.com 1.10,2013-07-09 10:31:00,
2013-07-09 04:46:00,69.6,43.0,29.78,West,262,0.0,-999.0,38,-99.99,,,0.00,weatherlink.com 1.10,2013-07-09 10:46:00,
2013-07-09 05:01:00,68.9,44.0,29.79,West,262,0.0,-999.0,41,-99.99,,,0.00,weatherlink.com 1.10,2013-07-09 11:01:00,
2013-07-09 05:16:00,68.3,45.0,29.70,West,262,0.0,-999.0,44,-99.99,,,0.00,weatherlink.com 1.10,2013-07-09 11:16:00,
2013-07-09 05:31:00,67.3,45.0,29.70,West,262,0.0,-999.0,44,-99.99,,,0.00,weatherlink.com 1.10,2013-07-09 11:31:00,
2013-07-09 05:46:00,66.9,44.0,29.70,West,262,0.0,-999.0,44,-99.99,,,0.00,weatherlink.com 1.10,2013-07-09 11:46:00,
2013-07-09 06:01:00,67.4,44.0,29.70,West,262,0.0,-999.0,43,-99.99,,,0.00,weatherlink.com 1.10,2013-07-09 12:01:00,
2013-07-09 06:16:00,68.6,44.0,29.72,West,262,0.0,-999.0,41,-99.99,,,0.00,weatherlink.com 1.10,2013-07-09 12:16:00,
2013-07-09 06:31:00,68.8,45.0,29.72,West,262,0.0,-999.0,42,-99.99,,,0.00,weatherlink.com 1.10,2013-07-09 12:31:00,
2013-07-09 06:46:00,-999.0,-99.9,29.63,North,-999,-999.0,-999.0,-999,-99.99,,,0.00,weatherlink.com 1.10,2013-07-09 12:46:00,
2013-07-09 07:01:00,69.3,46.0,29.73,WSW,254,0.0,-999.0,43,-99.99,,,0.00,weatherlink.com 1.10,2013-07-09 13:01:00,
2013-07-09 07:16:00,71.1,47.0,29.73,WSW,247,0.0,-999.0,43,-99.99,,,0.00,weatherlink.com 1.10,2013-07-09 13:16:00,
2013-07-09 07:31:00,73.0,49.0,29.72,East,87,0.0,-999.0,43,-99.99,,,0.00,weatherlink.com 1.10,2013-07-09 13:31:00,
2013-07-09 07:46:00,74.2,49.0,29.73,East,87,0.0,-999.0,41,-99.99,,,0.00,weatherlink.com 1.10,2013-07-09 13:46:00,
2013-07-09 08:01:00,76.1,46.0,29.73,East,87,0.0,-999.0,35,-99.99,,,0.00,weatherlink.com 1.10,2013-07-09 14:01:00,
2013-07-09 08:16:00,78.6,47.0,29.74,East,82,0.0,-999.0,33,-99.99,,,0.00,weatherlink.com 1.10,2013-07-09 14:16:00,
2013-07-09 08:31:00,80.3,47.0,29.74,ESE,105,0.0,-999.0,31,-99.99,,,0.00,weatherlink.com 1.10,2013-07-09 14:31:00,
2013-07-09 08:46:00,83.0,51.0,29.73,ESE,111,0.0,-999.0,33,-99.99,,,0.00,weatherlink.com 1.10,2013-07-09 14:46:00,
2013-07-09 09:01:00,83.4,46.0,29.73,ESE,111,0.0,-999.0,27,-99.99,,,0.00,weatherlink.com 1.10,2013-07-09 15:01:00,
2013-07-09 09:16:00,84.3,49.0,29.75,ESE,111,0.0,-999.0,29,-99.99,,,0.00,weatherlink.com 1.10,2013-07-09 15:16:00,
2013-07-09 09:32:00,84.7,48.0,29.74,ESE,111,0.0,-999.0,28,-99.99,,,0.00,weatherlink.com 1.10,2013-07-09 15:32:00,
2013-07-09 09:47:00,84.9,51.0,29.74,ESE,111,0.0,-999.0,31,-99.99,,,0.00,weatherlink.com 1.10,2013-07-09 15:47:00,
2013-07-09 10:02:00,88.8,44.0,29.74,ESE,111,0.0,-999.0,21,-99.99,,,0.00,weatherlink.com 1.10,2013-07-09 16:02:00,
2013-07-09 10:17:00,89.9,47.0,29.73,ESE,111,0.0,-999.0,23,-99.99,,,0.00,weatherlink.com 1.10,2013-07-09 16:17:00,
2013-07-09 10:32:00,90.7,44.0,29.74,South,180,1.0,-999.0,20,-99.99,,,0.00,weatherlink.com 1.10,2013-07-09 16:32:00,
2013-07-09 10:47:00,94.3,45.0,29.72,South,180,0.0,-999.0,18,-99.99,,,0.00,weatherlink.com 1.10,2013-07-09 16:47:00,
2013-07-09 11:02:00,95.6,46.0,29.70,South,180,0.0,-999.0,18,-99.99,,,0.00,weatherlink.com 1.10,2013-07-09 17:02:00,
2013-07-09 11:17:00,95.4,47.0,29.72,West,273,3.0,-999.0,19,-99.99,,,0.00,weatherlink.com 1.10,2013-07-09 17:17:00,
2013-07-09 11:32:00,96.8,44.0,29.71,NNW,329,0.0,-999.0,16,-99.99,,,0.00,weatherlink.com 1.10,2013-07-09 17:32:00,
2013-07-09 11:47:00,97.5,43.0,29.70,North,350,5.0,-999.0,15,-99.99,,,0.00,weatherlink.com 1.10,2013-07-09 17:47:00,
2013-07-09 12:02:00,96.8,42.0,29.70,NE,49,0.0,-999.0,15,-99.99,,,0.00,weatherlink.com 1.10,2013-07-09 18:02:00,
2013-07-09 12:17:00,97.3,44.0,29.69,NE,36,2.0,-999.0,16,-99.99,,,0.00,weatherlink.com 1.10,2013-07-09 18:17:00,
2013-07-09 12:32:00,99.2,42.0,29.68,North,360,0.0,-999.0,14,-99.99,,,0.00,weatherlink.com 1.10,2013-07-09 18:32:00,
2013-07-09 12:47:00,100.2,41.0,29.68,North,355,1.0,-999.0,13,-99.99,,,0.00,weatherlink.com 1.10,2013-07-09 18:47:00,
2013-07-09 13:02:00,99.4,40.0,29.67,NE,38,3.0,-999.0,13,-99.99,,,0.00,weatherlink.com 1.10,2013-07-09 19:02:00,
2013-07-09 13:17:00,100.7,42.0,29.67,North,355,2.0,-999.0,13,-99.99,,,0.00,weatherlink.com 1.10,2013-07-09 19:17:00,
2013-07-09 13:32:00,101.7,42.0,29.66,NNW,330,0.0,-999.0,13,-99.99,,,0.00,weatherlink.com 1.10,2013-07-09 19:32:00,
2013-07-09 13:47:00,102.5,41.0,29.65,NW,310,3.0,-999.0,12,-99.99,,,0.00,weatherlink.com 1.10,2013-07-09 19:47:00,
2013-07-09 14:02:00,103.1,41.0,29.64,NNW,335,2.0,-999.0,12,-99.99,,,0.00,weatherlink.com 1.10,2013-07-09 20:02:00,
2013-07-09 14:17:00,99.9,41.0,29.66,West,259,1.0,-999.0,13,-99.99,,,0.00,weatherlink.com 1.10,2013-07-09 20:17:00,
2013-07-09 14:32:00,99.4,42.0,29.67,NNW,333,0.0,-999.0,14,-99.99,,,0.00,weatherlink.com 1.10,2013-07-09 20:32:00,
2013-07-09 14:47:00,102.5,41.0,29.65,NNW,331,0.0,-999.0,12,-99.99,,,0.00,weatherlink.com 1.10,2013-07-09 20:47:00,
2013-07-09 15:02:00,101.7,42.0,29.64,NW,310,2.0,-999.0,13,-99.99,,,0.00,weatherlink.com 1.10,2013-07-09 21:02:00,
2013-07-09 15:17:00,99.9,39.0,29.65,West,269,0.0,-999.0,12,-99.99,,,0.00,weatherlink.com 1.10,2013-07-09 21:17:00,
2013-07-09 15:32:00,102.5,39.0,29.65,West,275,3.0,-999.0,11,-99.99,,,0.00,weatherlink.com 1.10,2013-07-09 21:32:00,
2013-07-09 15:47:00,103.1,39.0,29.64,West,266,0.0,-999.0,11,-99.99,,,0.00,weatherlink.com 1.10,2013-07-09 21:47:00,
2013-07-09 16:02:00,103.6,39.0,29.63,West,280,0.0,-999.0,11,-99.99,,,0.00,weatherlink.com 1.10,2013-07-09 22:02:00,
2013-07-09 16:17:00,104.6,40.0,29.62,North,355,2.0,-999.0,11,-99.99,,,0.00,weatherlink.com 1.10,2013-07-09 22:17:00,
2013-07-09 16:32:00,104.6,38.0,29.61,West,278,2.0,-999.0,10,-99.99,,,0.00,weatherlink.com 1.10,2013-07-09 22:32:00,
2013-07-09 16:47:00,104.6,40.0,29.61,West,265,2.0,-999.0,11,-99.99,,,0.00,weatherlink.com 1.10,2013-07-09 22:47:00,
2013-07-09 17:02:00,105.1,38.0,29.60,West,267,0.0,-999.0,10,-99.99,,,0.00,weatherlink.com 1.10,2013-07-09 23:02:00,
2013-07-09 17:17:00,103.6,37.0,29.61,NNE,27,3.0,-999.0,10,-99.99,,,0.00,weatherlink.com 1.10,2013-07-09 23:17:00,
2013-07-09 17:32:00,104.6,38.0,29.60,NNW,345,2.0,-999.0,10,-99.99,,,0.00,weatherlink.com 1.10,2013-07-09 23:32:00,
2013-07-09 17:47:00,103.8,40.0,29.60,NNW,346,0.0,-999.0,11,-99.99,,,0.00,weatherlink.com 1.10,2013-07-09 23:47:00,
2013-07-09 18:02:00,104.4,40.0,29.59,NNW,346,0.0,-999.0,11,-99.99,,,0.00,weatherlink.com 1.10,2013-07-10 00:02:00,
2013-07-09 18:17:00,104.4,42.0,29.58,North,355,0.0,-999.0,12,-99.99,,,0.00,weatherlink.com 1.10,2013-07-10 00:17:00,
2013-07-09 18:32:00,104.4,40.0,29.58,North,355,0.0,-999.0,11,-99.99,,,0.00,weatherlink.com 1.10,2013-07-10 00:32:00,
2013-07-09 18:47:00,102.8,41.0,29.57,North,355,0.0,-999.0,12,-99.99,,,0.00,weatherlink.com 1.10,2013-07-10 00:47:00,
2013-07-09 19:02:00,102.0,40.0,29.58,North,355,0.0,-999.0,12,-99.99,,,0.00,weatherlink.com 1.10,2013-07-10 01:02:00,
2013-07-09 19:17:00,102.3,50.0,29.55,North,355,0.0,-999.0,17,-99.99,,,0.00,weatherlink.com 1.10,2013-07-10 01:17:00,
2013-07-09 19:32:00,99.7,52.0,29.54,North,355,0.0,-999.0,20,-99.99,,,0.00,weatherlink.com 1.10,2013-07-10 01:32:00,
2013-07-09 19:47:00,95.6,55.0,29.55,North,355,0.0,-999.0,25,-99.99,,,0.00,weatherlink.com 1.10,2013-07-10 01:47:00,
2013-07-09 20:02:00,92.9,52.0,29.56,North,355,0.0,-999.0,25,-99.99,,,0.00,weatherlink.com 1.10,2013-07-10 02:02:00,
2013-07-09 20:17:00,90.5,52.0,29.54,North,355,0.0,-999.0,27,-99.99,,,0.00,weatherlink.com 1.10,2013-07-10 02:17:00,
2013-07-09 20:32:00,88.0,51.0,29.55,North,355,0.0,-999.0,28,-99.99,,,0.00,weatherlink.com 1.10,2013-07-10 02:32:00,
2013-07-09 20:47:00,86.1,53.0,29.57,North,355,0.0,-999.0,32,-99.99,,,0.00,weatherlink.com 1.10,2013-07-10 02:47:00,
2013-07-09 21:02:00,84.7,51.0,29.58,North,355,0.0,-999.0,31,-99.99,,,0.00,weatherlink.com 1.10,2013-07-10 03:02:00,
2013-07-09 21:17:00,84.5,48.0,29.57,North,355,0.0,-999.0,28,-99.99,,,0.00,weatherlink.com 1.10,2013-07-10 03:17:00,
2013-07-09 21:32:00,83.4,49.0,29.57,North,355,0.0,-999.0,30,-99.99,,,0.00,weatherlink.com 1.10,2013-07-10 03:32:00,
2013-07-09 21:47:00,82.8,46.0,29.59,North,355,0.0,-999.0,27,-99.99,,,0.00,weatherlink.com 1.10,2013-07-10 03:47:00,
2013-07-09 22:02:00,82.4,45.0,29.59,North,355,0.0,-999.0,27,-99.99,,,0.00,weatherlink.com 1.10,2013-07-10 04:02:00,
2013-07-09 22:17:00,81.6,39.0,29.57,NW,312,0.0,-999.0,22,-99.99,,,0.00,weatherlink.com 1.10,2013-07-10 04:17:00,
2013-07-09 22:32:00,83.2,41.0,29.57,NW,312,0.0,-999.0,22,-99.99,,,0.00,weatherlink.com 1.10,2013-07-10 04:32:00,
2013-07-09 22:47:00,83.2,38.0,29.57,East,80,0.0,-999.0,20,-99.99,,,0.00,weatherlink.com 1.10,2013-07-10 04:47:00,
2013-07-09 23:02:00,83.8,37.0,29.57,SE,134,0.0,-999.0,19,-99.99,,,0.00,weatherlink.com 1.10,2013-07-10 05:02:00,
2013-07-09 23:18:00,85.3,40.0,29.56,SE,134,0.0,-999.0,20,-99.99,,,0.00,weatherlink.com 1.10,2013-07-10 05:18:00,
2013-07-09 23:33:00,83.2,41.0,29.56,SE,134,0.0,-999.0,22,-99.99,,,0.00,weatherlink.com 1.10,2013-07-10 05:33:00,
2013-07-09 23:48:00,81.1,38.0,29.57,SE,134,0.0,-999.0,21,-99.99,,,0.00,weatherlink.com 1.10,2013-07-10 05:48:00,